Kap Morris Jesup

KL  EN  DA
ASIAQ
Weather Now GREENLAND SURVEY
Updated [WGT/WGST] Temperature [°C] Wind [m/s] Air pressure [hPa] Relative humidity [%] Precipitation [mm]
Present Wind chill Speed Max
25.02 08:00-24,80,0n/an/a101477n/a
25.02 07:00-23,90,0n/an/a101378n/a
25.02 06:00-23,20,0n/an/a101379n/a
25.02 05:00-23,60,0n/an/a101278n/a
25.02 04:00-23,30,0n/an/a101278n/a
25.02 03:00-24,10,0n/an/a101178n/a
25.02 02:00-24,60,0n/an/a101177n/a
25.02 01:00-24,40,0n/an/a101076n/a
25.02 00:00-25,10,0n/an/a101076n/a
24.02 23:00-25,20,0n/an/a101077n/a
24.02 22:00-24,80,0n/an/a100976n/a
24.02 21:00-25,50,0n/an/a100976n/a
24.02 20:00-25,80,0n/an/a100977n/a
24.02 19:00-25,90,0n/an/a100976n/a
24.02 18:00-25,70,0n/an/a100877n/a
24.02 17:00-25,30,0n/an/a100877n/a
24.02 16:00-23,80,0n/an/a100777n/a
24.02 15:00-23,80,0n/an/a100777n/a
24.02 14:00-23,90,0n/an/a100678n/a
24.02 13:00-24,10,0n/an/a100678n/a
24.02 12:00-24,30,0n/an/a100678n/a
24.02 11:00-23,90,0n/an/a100678n/a
24.02 10:00-24,00,0n/an/a100678n/a
24.02 09:00-24,20,0n/an/a100678n/a
24.02 08:00-24,30,0n/an/a100677n/a
Position: (83.6561111111,-33.3738888888)

[Back]